Regional Weather Roundup
Issued by NWS

Home | Current Version | Previous Version | Text Only | Print | Product List | Glossary On
Versions: 1 2 3 4 5 6 7 8 9 10 11 12 13 14 15 16 17 18 19 20 21 22 23 24 25 26 27 28 29 30 31 32 33 34 35 36 37 38 39 40 41 42 43 44 45 46 47 48 49 50
000
ASUS43 KTOP 290859
RWRKS

WEATHER ROUNDUP FOR KANSAS
NATIONAL WEATHER SERVICE GOODLAND KS
400 AM CDT FRI MAY 29 2015

NOTE:  "FAIR" INDICATES FEW OR NO CLOUDS BELOW 12,000 FEET WITH NO
SIGNIFICANT WEATHER AND/OR OBSTRUCTIONS TO VISIBILITY.

KSZ001>006-013>018-027>032-041>047-291000-
NORTHWEST KANSAS

CITY           SKY/WX    TMP DP  RH WIND       PRES   REMARKS
GOODLAND       PTCLDY    52  49  89 W9        30.04S
HAYS           CLOUDY    57  50  77 E3        29.96S
HILL CITY      CLOUDY    56  53  90 W7        29.97R
RUSSELL        CLOUDY    58  57  97 W3        29.93S
$$

KSZ061>065-074>080-084>089-291000-
SOUTHWEST KANSAS

CITY           SKY/WX    TMP DP  RH WIND       PRES   REMARKS
DODGE CITY     MOCLDY    58  55  90 CALM      29.98R
ELKHART          N/A     57  53  86 N5          N/A
GARDEN CITY    CLOUDY    56  54  93 NW6       30.00F
GREAT BEND     CLOUDY    61  55  82 NW6       29.95S
LIBERAL        CLOUDY    57  54  88 NW7       30.01R VSB 3/4
$$

KSZ066>073-081>083-090>101-291000-
SOUTHEAST KANSAS

CITY           SKY/WX    TMP DP  RH WIND       PRES   REMARKS
CHANUTE        MOCLDY    68  67  96 SW5       29.92R THUNDER
COFFEYVILLE    CLOUDY    69  67  93 S9        29.93R
HUTCHINSON     PTCLDY    61  58  90 CALM      29.92S
MEDICINE LODGE   N/A     59  58  96 NE6       29.93R
NEWTON         CLOUDY    64  61  88 SE6       29.93R
PARSONS        CLOUDY    70  68  93 S7        29.94R
WICHITA INTL   MOCLDY    65  63  93 SE8       29.90S
WICHITA JABRA  MOCLDY    63  63 100 SE3       29.91R
WINFIELD       CLOUDY    70  69  97 NW8       29.93R
$$

KSZ007>012-019>026-033>040-048>060-102>105-291000-
NORTHEAST KANSAS

CITY           SKY/WX    TMP DP  RH WIND       PRES   REMARKS
CONCORDIA      MOCLDY    59  58  96 S6        29.91S
EMPORIA        TSTM      64  63  96 SE8       29.93R
LAWRENCE       CLOUDY    65  63  93 SE6       29.93S
MANHATTAN      CLOUDY    66  65  96 CALM      29.87R
OLATHE IND     FOG       64  64 100 SE7       29.95S VSB 3/4
OLATHE EXE     FOG       64  64 100 S5        29.94S VSB 1/2
SALINA         MOCLDY    62  58  86 CALM      29.91S
TOPEKA BILLARD CLOUDY    66  65  96 E7        29.91F
TOPEKA FORBES  LGT RAIN  67  64  90 SE8       29.91F FOG
$$



USA.gov is the U.S. government's official web portal to all federal, state and local government web resources and services.